Tracking 28052 objects as of 22-Sep-2023
HD Live streaming from Space Station
objects crossing your sky now

STARLINK-4157

Track STARLINK-4157 now!
10-day predictions
STARLINK-4157 is classified as:


NORAD ID: 53035
Int'l Code: 2022-076BB
Perigee: 545.9 km
Apogee: 547.8 km
Inclination: 53.2 °
Period: 95.4 minutes
Semi major axis: 6917 km
RCS: Unknown
Launch date: July 7, 2022
Source: United States (US)
Launch site: AIR FORCE EASTERN TEST RANGE (AFETR)
Your satellite tracking list
Your tracking list is empty




NASA's NSSDC Master Catalog

Two Line Element Set (TLE):
1 53035U 22076BB  23265.07746348  .00023873  00000-0  15124-2 0  9998
2 53035  53.2159 152.6389 0001383  87.3225 272.7925 15.08853842 67774
Source of the keplerian elements: AFSPC